Regional Weather Roundup
Issued by NWS

Home | Current Version | Previous Version | Text Only | Print | Product List | Glossary On
Versions: 1 2 3 4 5 6 7 8 9 10 11 12 13 14 15 16 17 18 19 20 21 22 23 24 25 26 27
000
ASUS44 KJAN 281710
RWRMS

MISSISSIPPI HOURLY WEATHER ROUNDUP
NATIONAL WEATHER SERVICE JACKSON MS
1200 PM CDT SUN MAY 28 2017

NOTE: "FAIR: INDICATES FEW OR NO CLOUDS BELOW 12,000 FEET WITH NO
SIGNIFICANT WEATHER AND/OR OBSTRUCTIONS TO VISIBILITY.

MSZ001>002-007>008-010>013-018>021-025>028-034>036-281800-
NORTHWEST MISSISSIPPI

CITY           SKY/WX    TMP DP  RH WIND       PRES   REMARKS
BATESVILLE     FAIR      76  64  66 S10G16    29.89R
CLARKSDALE       N/A     75  68  78 MISG      29.91R
CLEVELAND      FAIR      72  70  93 S9        29.88R
GREENWOOD      CLOUDY    74  66  76 S12G25    29.85F
GREENVILLE       N/A    N/A N/A N/A MISG      29.86F
OLIVE BRANCH   CLOUDY   N/A N/A N/A S9        29.89R
OXFORD         FAIR      73  63  68 SW6       29.92R
TUNICA         CLOUDY    73  64  73 SW10      29.92R
WINONA         FAIR      71  65  82 S10G22    29.88F
$$

MSZ003>006-009-014>017-022>024-029>033-037>039-281800-
NORTHEAST MISSISSIPPI

CITY           SKY/WX    TMP DP  RH WIND       PRES   REMARKS
COLUMBUS AFB   CLOUDY    76  69  79 S15G23    29.92F
CORINTH        FAIR      75  64  69 SW10      29.92S
STARKVILLE     FAIR      73  66  78 S15       29.95F
TUPELO         CLOUDY    76  64  66 SE16G25   29.82F
$$

MSZ040-058-281800-
CENTRAL MISSISSIPPI

CITY           SKY/WX    TMP DP  RH WIND       PRES   REMARKS
JACKSON INTL   CLOUDY    73  67  81 SE14      30.02F
JACKSON HAWKNS PTSUNNY   75  67  76 SE9       30.02F
MADISON        FAIR      72  66  83 CALM      30.01F
MERIDIAN KEY   CLOUDY    80  64  58 S10       30.04F
MERIDIAN NAS   CLOUDY    80  61  52 S7        30.02F
VICKSBURG VKS  SUNNY     73  68  83 SE10G17   29.96F
$$

MSZ059>079-281800-
SOUTH MISSISSIPPI

CITY           SKY/WX    TMP DP  RH WIND       PRES   REMARKS
COLUMBIA       FAIR      70  66  88 NE3       30.13F
HATTIESBURG    CLOUDY    74  68  81 CALM      30.11F
LAUREL         PTSUNNY   75  68  79 CALM      30.10F
MCCOMB         CLOUDY    68  64  87 NE6       30.09F
NATCHEZ        CLOUDY    71  66  84 SE12      30.03F
PINE BELT      CLOUDY    70  66  88 N6        30.12F
$$

MSZ080>082-281800-
COASTAL MISSISSIPPI

CITY           SKY/WX    TMP DP  RH WIND       PRES   REMARKS
BAY ST LOUIS   MOSUNNY   86  72  62 SW3       30.05S HX  92
BILOXI         MOSUNNY   83  76  79 S6        30.05R HX  92
PASCAGOULA     CLOUDY    85  73  67 CALM      30.06S HX  91
GULFPORT       CLOUDY    84  76  76 S7        30.04F HX  93
$$

LAZ007>009-015>016-023>026-281800-
NORTHEAST LOUISIANA

CITY           SKY/WX    TMP DP  RH WIND       PRES   REMARKS
BASTROP        LGT RAIN  70  69  98 SE9       29.95F
TALLULAH/VBURG CLOUDY    72  65  78 SE15      29.97F
VIDALIA        FAIR      72  68  86 E9        30.02F
$$




USA.gov is the U.S. government's official web portal to all federal, state and local government web resources and services.